User: anonymous   Login
Location: Eymir
(36.7333°N, 29.7833°E)
Time: 08:48:51
(UTC+00:00)
Language:

Nadezhda 3 Rocket - Orbit

View from above orbital plane
View from above orbital plane
View from above satellite
View from above satellite

Ground track
Ground track

The orbit is defined by the following mean orbital elements,

1 21153U          26072.73665332 +.00000000 +00000-0 +62048-4 0 00001
2 21153  82.9299 348.0586 0027812 232.2576 156.0387 13.76344678    03
Epoch (UTC): 13 March 2026 17:40:46
Eccentricity: 0.0027812
inclination: 82.9299°
perigee height: 956 km
apogee height: 997 km
right ascension of ascending node: 348.0586°
argument of perigee: 232.2576°
revolutions per day: 13.76344678
mean anomaly at epoch: 156.0387°

The dashed part of the orbit path shows where the satellite is in the earth's shadow,  

DLR